User: anonymous   Login
Location: Brno
(49.2000°N, 16.6330°E)
Time: 11:44:32
(UTC+02:00)
Language:

Meteor 1-4 Rocket - Orbit

View from above orbital plane
View from above orbital plane
View from above satellite
View from above satellite

Ground track
Ground track

The orbit data is extracted from the following two-line orbital elements,

1 04394U 70037B   15089.47308368  .00007799  00000-0  31382-3 0  9991
2 04394 081.2428 243.1240 0044832 002.9318 357.2168 15.23797294441243
Epoch (UTC): 30 March 2015 11:21:14
Eccentricity: 0.0044832
inclination: 81.2428°
perigee height: 463 km
apogee height: 525 km
right ascension of ascending node: 243.1240°
argument of perigee: 2.9318°
revolutions per day: 15.23797294
mean anomaly at epoch: 357.2168°
orbit number at epoch: 44124

The dashed part of the orbit path shows where the satellite is in the earth's shadow,  

DLR